Weather History for Mexico City Airport, Mexico

Change the Weather History Date:

Friday, September 30, 2011

  Actual Average Record
Temperature  
Mean Temperature 63 °F -  
Max Temperature 73 °F 71 °F 77 °F (1997)
Min Temperature 53 °F 50 °F 41 °F (2010)
Degree Days  
Heating Degree Days 2    
Growing Degree Days 13 (Base 50)    
Moisture  
Dew Point 47 °F    
Average Humidity 60    
Maximum Humidity 82    
Minimum Humidity 31    
Precipitation  
Precipitation 0.00 in - - ()
Sea Level Pressure  
Sea Level Pressure 30.16 in    
Wind  
Wind Speed 8 mph ()    
Max Wind Speed 23 mph    
Max Gust Speed 30 mph    
Visibility 8.1 miles    
Events Rain    
Averages and records for this station are not official NWS values.
T = Trace of Precipitation, MM = Missing Value Source: Averaged Metar Reports

Daily Weather History Graph

Daily Weather History Graph

Search for Another Location

Airport:

Trip Planner

Search our weather history database for the weather conditions in past years. The results will help you decide how hot, cold, wet, or windy it might be!

Date:

Astronomy

Sep. 30, 2011 Rise Set
Actual Time 7:26 AM CDT 7:25 PM CDT
Civil Twilight 7:04 AM CDT 7:47 PM CDT
Nautical Twilight 6:39 AM CDT 8:13 PM CDT
Astronomical Twilight 6:14 AM CDT 8:38 PM CDT
Moon 10:46 AM CDT (9/30) 10:10 PM CDT (9/30)
Length of Visible Light 12h 42m
Length of Day
11h 58m
Waxing Crescent, 15% of the Moon is Illuminated
Sep 30
Waxing Crescent
Oct 3
First Quarter
Oct 11
Full
Oct 19
Last Quarter
Oct 26
New

Hourly Weather History & Observations

Time (CDT) Temp. Dew Point Humidity Pressure Visibility Wind Dir Wind Speed Gust Speed Precip Events Conditions
12:52 AM 60.8 °F 48.2 °F 63% 29.82 in 14.0 mi NNW 8.1 mph - N/A   Clear
1:53 AM 59.0 °F 48.2 °F 67% 30.32 in 14.0 mi North 9.2 mph - N/A   Clear
2:54 AM 59.0 °F 48.2 °F 67% 30.31 in 12.0 mi NNW 3.5 mph - N/A   Clear
3:45 AM 59.0 °F 48.2 °F 67% 29.79 in 12.0 mi NE 3.5 mph - N/A   Clear
4:43 AM 55.4 °F 50.0 °F 82% 30.29 in 10.0 mi East 5.8 mph - N/A   Clear
5:47 AM 53.6 °F 48.2 °F 82% 30.29 in 8.0 mi East 6.9 mph - N/A   Partly Cloudy
6:47 AM 53.6 °F 48.2 °F 82% 29.82 in 7.0 mi NE 4.6 mph - N/A   Scattered Clouds
7:21 AM 53.6 °F 48.2 °F 82% 30.31 in 7.0 mi ENE 8.1 mph - N/A   Mostly Cloudy
7:48 AM 53.6 °F 48.2 °F 82% 30.32 in 6.0 mi NE 6.9 mph - N/A   Mostly Cloudy
8:20 AM 55.4 °F 50.0 °F 82% 30.33 in 5.0 mi North 8.1 mph - N/A   Mostly Cloudy
8:48 AM 57.2 °F 50.0 °F 77% 30.34 in 5.0 mi NNE 9.2 mph - N/A   Mostly Cloudy
9:20 AM 59.0 °F 50.0 °F 72% 30.34 in 5.0 mi North 3.5 mph - N/A   Mostly Cloudy
9:45 AM 60.8 °F 50.0 °F 68% 29.87 in 5.0 mi NNE 6.9 mph - N/A   Mostly Cloudy
10:21 AM 62.6 °F 46.4 °F 55% 30.35 in 5.0 mi North 8.1 mph - N/A   Scattered Clouds
10:52 AM 64.4 °F 44.6 °F 49% 30.35 in 6.0 mi North 5.8 mph - N/A   Scattered Clouds
11:38 AM 68.0 °F 44.6 °F 43% 30.34 in 7.0 mi NNE 9.2 mph - N/A   Scattered Clouds
11:42 AM 68.0 °F 44.6 °F 43% 30.34 in 7.0 mi NNE 3.5 mph - N/A   Scattered Clouds
12:45 PM 69.8 °F 44.6 °F 40% 29.80 in 7.0 mi North 11.5 mph - N/A   Mostly Cloudy
1:45 PM 71.6 °F 42.8 °F 35% 30.30 in 7.0 mi NW 6.9 mph - N/A   Mostly Cloudy
2:47 PM 73.4 °F 41.0 °F 31% 30.25 in 6.0 mi NE 9.2 mph - N/A   Mostly Cloudy
3:49 PM 73.4 °F 42.8 °F 33% 29.70 in 6.0 mi North 17.3 mph - N/A   Mostly Cloudy
4:44 PM 73.4 °F 42.8 °F 33% 30.21 in 7.0 mi North 17.3 mph - N/A   Mostly Cloudy
5:46 PM 71.6 °F 44.6 °F 38% 30.20 in 7.0 mi North 23.0 mph - N/A   Mostly Cloudy
6:47 PM 69.8 °F 48.2 °F 46% 29.76 in 7.0 mi NNE 20.7 mph - N/A   Mostly Cloudy
6:57 PM 69.8 °F 48.2 °F 46% 30.21 in 5.0 mi NNE 20.7 mph - N/A Rain Light Rain
7:47 PM 64.4 °F 50.0 °F 59% 30.26 in 6.0 mi NNE 17.3 mph - N/A   Mostly Cloudy
8:43 PM 62.6 °F 50.0 °F 63% 30.29 in 6.0 mi NE 18.4 mph 29.9 mph N/A   Scattered Clouds
9:53 PM 62.6 °F 50.0 °F 63% 29.98 in 12.0 mi North 10.4 mph - N/A   Mostly Cloudy
9:57 PM 60.8 °F 50.0 °F 68% 29.98 in 12.0 mi North 10.4 mph - N/A   Mostly Cloudy
10:12 PM 60.8 °F 50.0 °F 68% 29.89 in 12.0 mi North 10.4 mph - N/A   Mostly Cloudy
10:45 PM 60.8 °F 48.2 °F 63% 30.33 in 12.0 mi North 6.9 mph - N/A   Scattered Clouds
11:48 PM 60.8 °F 50.0 °F 68% 30.35 in 12.0 mi North 12.7 mph - N/A   Mostly Cloudy